User: anonymous   Login
Location: Unspecified
(0.0000°N, 0.0000°E)
Time: 10:00:21
(UTC+00:00)
Language:

STARLINK-11124 [DTC] - Orbit

View from above orbital plane
View from above orbital plane
View from above satellite
View from above satellite

Ground track
Ground track

The orbit is defined by the following mean orbital elements,

1 59952U          26145.52624906 +.00000000 +00000-0 +44227-4 0 00008
2 59952  53.1589 232.5119 0001073  75.1520 284.9616 15.69736000    00
Epoch (UTC): 25 May 2026 12:37:47
Eccentricity: 0.0001073
inclination: 53.1589°
perigee height: 359 km
apogee height: 360 km
right ascension of ascending node: 232.5119°
argument of perigee: 75.1520°
revolutions per day: 15.69736000
mean anomaly at epoch: 284.9616°

The dashed part of the orbit path shows where the satellite is in the earth's shadow,  

DLR